sim
Sign-in with your pilot id or email,
or register
Callsign
Passwort

Schedule Details

Flight Number: RYR34 (1)
Departure: Manchester Airport (EGCC) at 18:00
Arrival: Bratislava M. R. Stefanik Airport (LZIB) at 20:30
Route: Ryanair Passenger Schedule. Enter filed route here before submitting Pirep.

Weather Information
Getting current METAR information for EGCC 280450Z AUTO VRB01KT 9999 NCD 09/07 Q1036
Getting current METAR information for LZIB 280500Z 28005KT CAVOK 15/08 Q1025 NOSIG

Schedule Frequency

Route Map